| time (UTC) | temp F | wind direction | speed knots | gust knots | rain 1hr in | rain 24hr in | rain mn in | humidity % | barometer mb |
| 20260507141612 | 56 | 229 | 2.6 | 6.1 | 0.00 | 0.00 | 0.00 | 87 | 1019.5 |
| 20260507140049 | 56 | 165 | 0.9 | 4.3 | 0.00 | 0.00 | 0.00 | 88 | 1019.4 |
| 20260507134549 | 56 | 123 | 1.7 | 7.0 | 0.00 | 0.00 | 0.00 | 88 | 1019.2 |
| 20260507133044 | 56 | 200 | 1.7 | 4.3 | 0.00 | 0.00 | 0.00 | 88 | 1019.0 |
| 20260507131544 | 55 | 178 | 0.9 | 4.3 | 0.00 | 0.00 | 0.00 | 88 | 1019.1 |
| 20260507130040 | 55 | 165 | 1.7 | 6.1 | 0.00 | 0.00 | 0.00 | 88 | 1018.9 |
| 20260507124538 | 56 | 130 | 2.6 | 7.0 | 0.00 | 0.00 | 0.00 | 88 | 1018.8 |
| 20260507123037 | 56 | 126 | 1.7 | 6.1 | 0.00 | 0.00 | 0.00 | 87 | 1018.7 |
| 20260507121535 | 56 | 160 | 1.7 | 6.1 | 0.00 | 0.00 | 0.00 | 87 | 1018.8 |
| 20260507120034 | 56 | 122 | 2.6 | 6.1 | 0.00 | 0.00 | 0.00 | 87 | 1018.7 |
| 20260507114535 | 56 | 132 | 0.0 | 5.2 | 0.00 | 0.00 | 0.00 | 86 | 1018.7 |
| 20260507113034 | 56 | 164 | 0.0 | 6.1 | 0.00 | 0.00 | 0.00 | 86 | 1018.7 |
| 20260507111540 | 56 | 149 | 0.0 | 3.5 | 0.00 | 0.00 | 0.00 | 85 | 1018.7 |
| 20260507110028 | 56 | 173 | 0.9 | 6.1 | 0.00 | 0.00 | 0.00 | 85 | 1018.7 |
| 20260507104526 | 57 | 157 | 1.7 | 5.2 | 0.00 | 0.00 | 0.00 | 84 | 1018.6 |
| 20260507103024 | 57 | 134 | 0.0 | 4.3 | 0.00 | 0.00 | 0.00 | 83 | 1018.6 |
| 20260507101522 | 58 | 167 | 1.7 | 5.2 | 0.00 | 0.00 | 0.00 | 82 | 1018.6 |
| 20260507100020 | 58 | 142 | 0.0 | 4.3 | 0.00 | 0.00 | 0.00 | 82 | 1018.5 |
| 20260507094522 | 58 | 147 | 1.7 | 5.2 | 0.00 | 0.00 | 0.00 | 82 | 1018.5 |
| 20260507093021 | 58 | 108 | 0.9 | 4.3 | 0.00 | 0.00 | 0.00 | 81 | 1018.6 |
| 20260507091525 | 58 | 138 | 3.5 | 7.8 | 0.00 | 0.00 | 0.00 | 81 | 1018.7 |
| 20260507090115 | 58 | 140 | 0.9 | 8.7 | 0.00 | 0.00 | 0.00 | 80 | 1018.7 |
| 20260507084522 | 59 | 159 | 2.6 | 6.1 | 0.00 | 0.00 | 0.00 | 80 | 1018.7 |
| 20260507083012 | 59 | 107 | 2.6 | 6.1 | 0.00 | 0.00 | 0.00 | 80 | 1018.7 |
| 20260507081519 | 59 | 153 | 1.7 | 6.1 | 0.00 | 0.00 | 0.00 | 79 | 1018.6 |
| 20260507080008 | 59 | 102 | 0.9 | 6.1 | 0.00 | 0.00 | 0.00 | 79 | 1018.7 |
| 20260507074506 | 60 | 149 | 1.7 | 4.3 | 0.00 | 0.00 | 0.00 | 78 | 1018.6 |
| 20260507073008 | 60 | 138 | 0.0 | 3.5 | 0.00 | 0.00 | 0.00 | 78 | 1018.7 |
| 20260507071604 | 60 | 156 | 0.0 | 6.1 | 0.00 | 0.00 | 0.00 | 78 | 1018.7 |
| 20260507070002 | 61 | 153 | 0.0 | 5.2 | 0.00 | 0.00 | 0.00 | 77 | 1018.6 |
| 20260507064503 | 61 | 156 | 1.7 | 4.3 | 0.00 | 0.00 | 0.00 | 76 | 1018.6 |
| 20260507063000 | 62 | 157 | 1.7 | 5.2 | 0.00 | 0.00 | 0.00 | 76 | 1018.5 |
| 20260507061604 | 62 | 161 | 0.0 | 5.2 | 0.00 | 0.00 | 0.00 | 75 | 1018.5 |
| 20260507060104 | 63 | 144 | 0.9 | 4.3 | 0.00 | 0.00 | 0.00 | 74 | 1018.3 |
| 20260507054607 | 63 | 142 | 1.7 | 4.3 | 0.00 | 0.00 | 0.00 | 73 | 1018.4 |
| 20260507053105 | 64 | 227 | 2.6 | 6.1 | 0.00 | 0.00 | 0.00 | 72 | 1018.4 |
| 20260507051558 | 65 | 182 | 0.0 | 3.5 | 0.00 | 0.00 | 0.00 | 71 | 1018.4 |
| 20260507050057 | 66 | 134 | 0.9 | 6.1 | 0.00 | 0.00 | 0.00 | 71 | 1018.2 |
| 20260507044603 | 67 | 184 | 0.0 | 3.5 | 0.00 | 0.00 | 0.00 | 70 | 1018.2 |
| 20260507043101 | 67 | 197 | 0.9 | 3.5 | 0.00 | 0.00 | 0.00 | 69 | 1018.1 |
| 20260507041554 | 68 | 160 | 0.0 | 5.2 | 0.00 | 0.00 | 0.00 | 68 | 1018.1 |
| 20260507040055 | 69 | 225 | 0.0 | 7.0 | 0.00 | 0.00 | 0.00 | 68 | 1017.9 |
| 20260507034605 | 70 | 148 | 0.9 | 5.2 | 0.00 | 0.00 | 0.00 | 67 | 1017.8 |
| 20260507033055 | 71 | 194 | 0.9 | 6.1 | 0.00 | 0.00 | 0.00 | 65 | 1017.6 |
| 20260507031552 | 73 | 205 | 0.0 | 0.0 | 0.00 | 0.00 | 0.00 | 61 | 1017.5 |
| 20260507030100 | 73 | 15 | 0.0 | 0.0 | 0.00 | 0.00 | 0.00 | 60 | 1017.3 |
| 20260507024556 | 73 | 11 | 0.9 | 3.5 | 0.00 | 0.00 | 0.00 | 59 | 1017.4 |
| 20260507023050 | 74 | 11 | 0.0 | 1.7 | 0.00 | 0.00 | 0.00 | 57 | 1017.4 |
| 20260507021550 | 75 | 84 | 0.9 | 3.5 | 0.00 | 0.00 | 0.00 | 56 | 1017.3 |
| 20260507020051 | 76 | 27 | 1.7 | 3.5 | 0.00 | 0.00 | 0.00 | 54 | 1017.3 |
| 20260507014550 | 77 | 17 | 0.9 | 4.3 | 0.00 | 0.00 | 0.00 | 53 | 1017.4 |
| 20260507013057 | 78 | 22 | 1.7 | 4.3 | 0.00 | 0.00 | 0.00 | 51 | 1017.5 |
| 20260507011547 | 78 | 43 | 1.7 | 4.3 | 0.00 | 0.00 | 0.00 | 51 | 1017.4 |
| 20260507010046 | 78 | 85 | 0.0 | 5.2 | 0.00 | 0.00 | 0.00 | 51 | 1017.4 |
| 20260507004547 | 77 | 70 | 0.9 | 5.2 | 0.00 | 0.00 | 0.00 | 53 | 1017.4 |
| 20260507003046 | 78 | 288 | 0.0 | 3.5 | 0.00 | 0.00 | 0.00 | 51 | 1017.6 |
| 20260507001544 | 80 | 101 | 0.9 | 5.2 | 0.00 | 0.00 | 0.00 | 49 | 1017.5 |
| 20260507000046 | 79 | 36 | 0.0 | 2.6 | 0.00 | 0.00 | 0.00 | 50 | 1017.8 |
| 20260506234540 | 77 | 81 | 0.0 | 2.6 | 0.00 | 0.00 | 0.00 | 51 | 1017.8 |
| 20260506233037 | 77 | 242 | 0.9 | 3.5 | 0.00 | 0.00 | 0.00 | 52 | 1017.9 |
| 20260506231534 | 78 | 346 | 0.0 | 2.6 | 0.00 | 0.00 | 0.00 | 51 | 1018.1 |
| 20260506230032 | 76 | 55 | 1.7 | 4.3 | 0.00 | 0.00 | 0.00 | 53 | 1018.4 |
| 20260506224528 | 77 | 34 | 0.9 | 7.0 | 0.00 | 0.00 | 0.00 | 52 | 1018.7 |
| 20260506223027 | 77 | 258 | 0.0 | 3.5 | 0.00 | 0.00 | 0.00 | 52 | 1019.0 |
| 20260506221525 | 76 | 344 | 0.0 | 2.6 | 0.00 | 0.00 | 0.00 | 54 | 1019.1 |
| 20260506220025 | 76 | 342 | 0.0 | 2.6 | 0.00 | 0.00 | 0.00 | 55 | 1019.3 |
| 20260506214524 | 74 | 16 | 0.9 | 7.0 | 0.00 | 0.00 | 0.00 | 55 | 1019.5 |
| 20260506213023 | 76 | 349 | 0.9 | 2.6 | 0.00 | 0.00 | 0.00 | 54 | 1019.7 |
| 20260506211519 | 74 | 344 | 0.9 | 4.3 | 0.00 | 0.00 | 0.00 | 56 | 1019.9 |
| 20260506210023 | 73 | 341 | 0.0 | 3.5 | 0.00 | 0.00 | 0.00 | 55 | 1020.1 |
| 20260506204518 | 73 | 88 | 0.0 | 4.3 | 0.00 | 0.00 | 0.00 | 54 | 1020.2 |
| 20260506203020 | 74 | 74 | 1.7 | 4.3 | 0.00 | 0.00 | 0.00 | 51 | 1020.3 |
| 20260506201515 | 74 | 15 | 0.0 | 0.9 | 0.00 | 0.00 | 0.00 | 53 | 1020.4 |
| 20260506200012 | 73 | 59 | 0.9 | 7.0 | 0.00 | 0.00 | 0.00 | 52 | 1020.6 |
| 20260506194510 | 72 | 48 | 0.0 | 1.7 | 0.00 | 0.00 | 0.00 | 56 | 1020.8 |
| 20260506193009 | 72 | 236 | 0.0 | 4.3 | 0.00 | 0.00 | 0.00 | 59 | 1020.9 |
| 20260506191509 | 72 | 72 | 0.9 | 5.2 | 0.00 | 0.00 | 0.00 | 56 | 1021.2 |
| 20260506190007 | 71 | 69 | 0.0 | 1.7 | 0.00 | 0.00 | 0.00 | 58 | 1021.4 |
| 20260506184508 | 71 | 311 | 0.0 | 2.6 | 0.00 | 0.00 | 0.00 | 58 | 1021.4 |
| 20260506183001 | 70 | 261 | 0.9 | 3.5 | 0.00 | 0.00 | 0.00 | 60 | 1021.4 |
| 20260506181600 | 69 | 262 | 0.0 | 2.6 | 0.00 | 0.00 | 0.00 | 62 | 1021.5 |
| 20260506180056 | 68 | 163 | 0.0 | 1.7 | 0.00 | 0.00 | 0.00 | 64 | 1021.5 |
| 20260506174551 | 67 | 181 | 0.0 | 1.7 | 0.00 | 0.00 | 0.00 | 66 | 1021.5 |
| 20260506173049 | 66 | 147 | 0.0 | 1.7 | 0.00 | 0.00 | 0.00 | 65 | 1021.5 |
| 20260506171555 | 66 | 205 | 0.0 | 0.0 | 0.00 | 0.00 | 0.00 | 68 | 1021.5 |
| 20260506170043 | 64 | 41 | 0.0 | 0.0 | 0.00 | 0.00 | 0.00 | 70 | 1021.5 |
| 20260506164539 | 63 | 172 | 0.9 | 1.7 | 0.00 | 0.00 | 0.00 | 71 | 1021.5 |
| 20260506163042 | 63 | 135 | 0.0 | 2.6 | 0.00 | 0.00 | 0.00 | 72 | 1021.5 |
| 20260506161533 | 62 | 107 | 0.0 | 0.9 | 0.00 | 0.00 | 0.00 | 74 | 1021.5 |
| 20260506160033 | 61 | 166 | 0.0 | 2.6 | 0.00 | 0.00 | 0.00 | 74 | 1021.5 |
| 20260506154527 | 60 | 163 | 0.9 | 2.6 | 0.00 | 0.00 | 0.00 | 75 | 1021.5 |
| 20260506153024 | 60 | 167 | 0.0 | 2.6 | 0.00 | 0.00 | 0.00 | 77 | 1021.5 |
| 20260506151531 | 59 | 138 | 0.0 | 3.5 | 0.00 | 0.00 | 0.00 | 77 | 1021.4 |
| 20260506150023 | 59 | 91 | 0.0 | 2.6 | 0.00 | 0.00 | 0.00 | 78 | 1021.4 |
| 20260506144519 | 59 | 165 | 0.0 | 1.7 | 0.00 | 0.00 | 0.00 | 78 | 1021.3 |
| 20260506143020 | 58 | 146 | 0.0 | 4.3 | 0.00 | 0.00 | 0.00 | 79 | 1021.2 |